Location: Eaton Estates
(41.3089°N, 82.0057°W)
Time: 08:49:02
(UTC+00:00)

NOAA 18 - Pass Details

Date: 09 April 2023
Orbit: 838 x 860 km, 98.9° (Epoch: 03 June)

Event Time Altitude Azimuth Distance (km) Brightness Sun altitude
Exits shadow 04:09:46 28° 305° (NW) 1,576 6.9 -37.9°
Drops below altitude 10° 04:12:48 10° 330° (NNW) 2,504 8.4 -38.1°
Sets 04:15:22 0° 338° (NNW) 3,443 9.3 -38.3°
